Find SNAP-1

NORAD ID: 26386 Int'l Des: 2000-033 Owner: SSTL Country: UK operational
LEOCIRCULARRETROGRADESSO

現在のビュー

3D地球を読み込み中...

SNAP-1について

説明を読み込み中...

次回通過

Passes for default location (London). Set your location on the main map for personalized predictions.

高度履歴

Loading altitude history...

軌道要素

1 26386U 00033C 26150.88721709 .00001441 00000-0 22197-3 0 9991
2 26386 97.7558 138.3304 0009116 331.0373 29.0329 14.74853757645907
Epoch: May 30, 2026 • Age: 12 hours

現在のステータス

高度 658.8 km
速度 7.53 km/s
衛星直下点 45.86°N, 61.49°W
打ち上げ日 Jun 28, 2000
運用期間 25.9 years
タイプ other

技術仕様

分類 Payload
質量 6.00 kg
乾燥質量 6.00 kg
総質量 6.00 kg
長さ 0.30 m
直径 0.40 m
スパン 0.40 m
形状 Box
製造者 SSTL
バスタイプ SNAP
フェーズステータス In Orbit
所有者/国 SSTL/UK

Most Searched